TimeCDT,TemperatureF,Dew PointF,Humidity,Sea Level PressureIn,VisibilityMPH,Wind Direction,Wind SpeedMPH,Gust SpeedMPH,PrecipitationIn,Events,Conditions,WindDirDegrees,DateUTC
12:56 AM,43.0,28.9,58,29.94,10.0,SSW,17.3,24.2,N/A,,Clear,210,2012-10-08 05:56:00
1:56 AM,42.1,28.9,60,29.94,10.0,SW,15.0,20.7,N/A,,Clear,220,2012-10-08 06:56:00
2:56 AM,43.0,28.0,56,29.93,10.0,SW,10.4,-,N/A,,Clear,230,2012-10-08 07:56:00
3:56 AM,43.0,26.1,51,29.91,10.0,WSW,5.8,-,N/A,,Clear,240,2012-10-08 08:56:00
4:56 AM,42.1,25.0,51,29.91,10.0,WSW,5.8,-,N/A,,Clear,240,2012-10-08 09:56:00
5:56 AM,41.0,25.0,53,29.90,10.0,SW,9.2,-,N/A,,Clear,230,2012-10-08 10:56:00
6:56 AM,39.9,25.0,55,29.90,10.0,SW,5.8,-,N/A,,Clear,230,2012-10-08 11:56:00
7:56 AM,42.1,25.0,51,29.88,10.0,WSW,4.6,-,N/A,,Clear,240,2012-10-08 12:56:00
8:56 AM,45.0,25.0,46,29.88,10.0,SSW,6.9,-,N/A,,Clear,210,2012-10-08 13:56:00
9:56 AM,53.1,24.1,32,29.86,10.0,SW,12.7,-,N/A,,Partly Cloudy,230,2012-10-08 14:56:00
10:56 AM,59.0,24.1,26,29.84,10.0,SSW,12.7,-,N/A,,Clear,210,2012-10-08 15:56:00
11:56 AM,66.0,21.9,19,29.80,10.0,SW,20.7,26.5,N/A,,Clear,230,2012-10-08 16:56:00
12:56 PM,71.1,19.0,14,29.77,10.0,SW,20.7,28.8,N/A,,Clear,220,2012-10-08 17:56:00
1:56 PM,73.0,21.0,14,29.75,10.0,West,13.8,24.2,N/A,,Clear,270,2012-10-08 18:56:00
3:56 PM,75.0,25.0,16,29.72,10.0,West,11.5,19.6,N/A,,Clear,280,2012-10-08 20:56:00
4:56 PM,75.9,25.0,15,29.70,10.0,SW,16.1,20.7,N/A,,Mostly Cloudy,230,2012-10-08 21:56:00
5:56 PM,71.1,32.0,24,29.73,10.0,North,13.8,-,N/A,,Partly Cloudy,350,2012-10-08 22:56:00
6:56 PM,68.0,34.0,28,29.75,10.0,North,8.1,-,N/A,,Mostly Cloudy,350,2012-10-08 23:56:00
7:56 PM,64.9,34.0,32,29.77,7.0,NNW,5.8,-,N/A,,Mostly Cloudy,340,2012-10-09 00:56:00
9:56 PM,60.1,37.0,42,29.81,10.0,North,8.1,-,N/A,,Scattered Clouds,10,2012-10-09 02:56:00
10:56 PM,57.9,39.0,49,29.81,10.0,North,6.9,-,N/A,,Scattered Clouds,350,2012-10-09 03:56:00
11:56 PM,55.0,37.9,53,29.81,10.0,NNW,4.6,-,N/A,,Partly Cloudy,340,2012-10-09 04:56:00